Oak Ridge, TN

12:43 PM EDT on March 23, 2017 (GMT -0400)
Oak Ridge

Weather History for KOQT - March, 2013

Change the Weather History Date:

Sunday, March 17, 2013

  Actual Average (KTYS) Record (KTYS)
Temperature  
Mean Temperature 64 °F -  
Max Temperature 73 °F 58 °F 80 °F (1945)
Min Temperature 54 °F 36 °F 20 °F (1988)
Degree Days  
Heating Degree Days 2    
Growing Degree Days 14 (Base 50)    
Moisture  
Dew Point 47 °F    
Average Humidity 57    
Maximum Humidity 77    
Minimum Humidity 38    
Precipitation  
Precipitation 0.00 in - - ()
Sea Level Pressure  
Sea Level Pressure 29.89 in    
Wind  
Wind Speed 2 mph (South)    
Max Wind Speed 14 mph    
Max Gust Speed 22 mph    
Visibility 10 miles    
Events      
Averages and records for this station are not official NWS values.
T = Trace of Precipitation, MM = Missing Value Source: NWS Daily Summary

Daily Weather History Graph

Daily Weather History Graph

Search for Another Location

Airport or City:

Trip Planner

Search our weather history database for the weather conditions in past years. The results will help you decide how hot, cold, wet, or windy it might be!

Date:

Astronomy

Mar. 17, 2013 Rise Set
Actual Time 7:44 AM EDT 7:46 PM EDT
Civil Twilight 7:18 AM EDT 8:11 PM EDT
Nautical Twilight 6:49 AM EDT 8:41 PM EDT
Astronomical Twilight 6:19 AM EDT 9:11 PM EDT
Moon 11:06 AM EDT (3/17) 12:43 AM EDT (3/17)
Length of Visible Light 12h 52m
Length of Day
12h 01m
Waxing Crescent, 31% of the Moon is Illuminated
Mar 17
Waxing Crescent
Mar 19
First Quarter
Mar 27
Full
Apr 3
Last Quarter
Apr 10
New

Hourly Weather History & Observations

Time (EDT) Temp. Dew Point Humidity Pressure Visibility Wind Dir Wind Speed Gust Speed Precip Events Conditions
12:53 AM 66.0 °F 46.0 °F 48% 29.88 in 10.0 mi Calm Calm - N/A   Overcast
1:53 AM 64.0 °F 46.0 °F 52% 29.88 in 10.0 mi Calm Calm - N/A   Overcast
2:53 AM 60.1 °F 48.0 °F 64% 29.88 in 10.0 mi Calm Calm - N/A   Overcast
3:53 AM 60.1 °F 48.0 °F 64% 29.87 in 10.0 mi Calm Calm - N/A   Overcast
4:53 AM 57.9 °F 48.0 °F 70% 29.88 in 10.0 mi Calm Calm - N/A   Overcast
5:53 AM 57.9 °F 48.0 °F 70% 29.90 in 10.0 mi Calm Calm - N/A   Overcast
6:53 AM 55.9 °F 46.9 °F 72% 29.91 in 10.0 mi Calm Calm - N/A   Mostly Cloudy
7:53 AM 54.0 °F 46.0 °F 75% 29.93 in 10.0 mi Calm Calm - N/A   Scattered Clouds
8:53 AM 54.0 °F 46.9 °F 77% 29.95 in 10.0 mi Calm Calm - N/A   Mostly Cloudy
9:53 AM 59.0 °F 48.0 °F 67% 29.97 in 10.0 mi Variable 3.5 mph - N/A   Clear
10:53 AM 61.0 °F 46.9 °F 60% 29.96 in 10.0 mi SE 4.6 mph - N/A   Clear
11:53 AM 64.9 °F 46.9 °F 52% 29.94 in 10.0 mi Calm Calm - N/A   Partly Cloudy
12:53 PM 68.0 °F 46.9 °F 47% 29.91 in 10.0 mi Variable 3.5 mph - N/A   Partly Cloudy
1:53 PM 69.1 °F 46.9 °F 45% 29.88 in 10.0 mi South 4.6 mph - N/A   Mostly Cloudy
2:53 PM 72.0 °F 46.9 °F 41% 29.85 in 10.0 mi Variable 5.8 mph - N/A   Scattered Clouds
3:53 PM 73.9 °F 46.9 °F 38% 29.83 in 10.0 mi SW 8.1 mph 20.7 mph N/A   Scattered Clouds
4:53 PM 72.0 °F 46.0 °F 40% 29.83 in 10.0 mi SSW 10.4 mph 18.4 mph N/A   Clear
5:53 PM 71.1 °F 45.0 °F 39% 29.82 in 10.0 mi SSW 12.7 mph 21.9 mph N/A   Partly Cloudy
6:53 PM 70.0 °F 46.0 °F 42% 29.84 in 10.0 mi SSW 13.8 mph 21.9 mph N/A   Partly Cloudy
7:53 PM 68.0 °F 46.0 °F 45% 29.87 in 10.0 mi South 8.1 mph - N/A   Mostly Cloudy
8:53 PM 59.0 °F 46.0 °F 62% 29.91 in 10.0 mi NE 4.6 mph - N/A   Mostly Cloudy
9:53 PM 57.0 °F 46.0 °F 67% 29.91 in 10.0 mi NE 3.5 mph - N/A   Clear
10:53 PM 55.9 °F 45.0 °F 67% 29.90 in 10.0 mi Calm Calm - N/A   Clear
11:53 PM 54.0 °F 45.0 °F 72% 29.89 in 10.0 mi Calm Calm - N/A   Clear